Theta_e
303 303 304 304 305 306 307 307 306 306 305 305 305 305 306 306 305 305 305 305 305 305 306 307 307 308 307 307 307 310 311 312 316 320 321 321 315 319 321 324 321 317 318 317 323 326 324 331 336 335 337 342 345 347 348 347 347 355 375 371 361 364 361 361 364 360 365 365 363 363 363 364 362 361 360 359 358 357 359 358 353 353 352 351 352 350 348 349
304 303 304 304 305 306 307 307 307 306 305 305 305 305 306 306 306 306 306 305 305 304 304 305 306 306 306 307 309 311 311 315 319 321 322 320 321 324 322 323 322 318 317 317 322 327 331 335 337 336 338 344 347 346 348 346 346 354 368 370 362 365 364 359 360 359 362 362 362 363 363 363 363 361 359 362 361 359 359 358 355 354 354 352 351 349 348 348
303 303 304 304 304 306 307 307 307 306 305 306 305 306 307 306 307 307 306 305 304 304 304 304 304 306 307 308 310 311 314 319 323 325 327 324 324 325 324 323 322 320 318 317 320 327 335 338 336 336 340 347 347 345 347 346 348 350 359 366 363 361 360 356 361 365 360 362 364 361 361 362 361 359 361 366 361 360 362 358 357 356 356 352 350 349 348 347
303 304 304 304 305 305 307 307 307 306 305 305 306 306 307 307 308 307 306 305 305 304 304 304 306 308 309 310 311 313 317 324 330 331 330 327 326 326 325 324 322 320 316 315 319 325 333 337 336 337 342 348 347 344 347 346 348 350 353 357 358 359 360 358 366 369 358 361 366 361 360 361 359 358 362 369 365 366 363 355 357 356 355 353 351 349 347 348
304 304 304 304 304 305 306 308 307 306 306 306 306 306 308 308 308 307 306 305 304 304 306 308 310 310 311 311 312 316 321 330 332 330 325 322 322 323 325 324 321 318 314 314 317 322 327 331 335 339 344 348 347 345 346 345 345 349 352 351 352 357 362 358 358 362 356 357 365 364 361 359 358 360 360 364 368 370 363 354 354 353 354 354 351 349 348 348
305 304 305 305 304 305 306 307 308 307 306 306 306 306 307 308 308 308 306 305 304 307 310 312 312 312 312 311 314 319 326 331 329 326 321 320 318 319 322 321 321 319 316 315 317 321 324 328 333 340 345 346 346 346 345 344 344 349 351 348 349 354 360 357 350 355 355 356 363 361 360 359 359 362 358 359 366 365 360 354 351 352 352 352 351 349 349 349
306 305 305 305 304 305 306 307 308 307 306 306 306 307 307 308 308 308 306 305 306 310 313 312 312 312 311 313 318 322 325 328 327 324 322 323 320 316 319 320 320 320 319 317 318 320 324 329 334 339 345 345 345 344 343 343 343 347 349 347 348 352 354 354 351 355 355 356 360 356 360 362 360 363 359 356 360 356 358 354 349 351 351 351 351 350 350 349
306 305 305 305 305 305 305 306 307 308 306 306 306 307 307 307 309 308 307 306 307 311 313 311 311 312 311 313 319 323 326 328 326 324 322 326 324 317 318 321 320 320 321 321 319 321 325 330 334 339 343 344 344 343 342 342 342 343 346 344 348 352 350 349 352 353 353 356 356 354 361 362 358 362 360 356 356 354 356 352 349 350 349 350 351 350 351 350
308 306 306 305 305 305 305 306 307 308 307 306 306 307 307 307 308 309 307 306 308 311 313 312 312 311 312 315 319 324 326 323 325 325 322 327 328 323 321 322 322 321 322 322 321 322 327 331 335 338 340 342 341 341 340 339 341 341 342 342 345 350 349 347 351 351 351 355 356 356 358 359 357 359 358 356 355 353 354 352 349 349 350 351 351 351 351 350
308 307 306 306 306 305 305 305 307 308 307 307 307 307 307 307 308 309 308 308 308 311 313 313 312 311 313 319 323 327 325 318 323 323 321 326 330 331 328 327 328 323 321 322 322 324 328 331 335 336 337 338 338 338 337 336 337 335 337 339 340 344 346 348 350 351 351 354 356 359 358 358 357 358 359 356 352 353 353 352 348 348 350 350 349 350 350 350
307 307 307 306 306 305 305 306 306 308 308 308 307 307 307 307 309 309 309 310 309 310 313 313 313 311 314 320 322 325 323 318 321 319 320 322 326 331 332 331 329 323 321 322 322 326 328 331 333 334 336 335 336 336 335 334 334 333 334 334 333 336 340 344 346 346 349 352 355 359 358 356 353 355 359 355 352 353 352 351 349 350 350 348 348 348 350 350
306 307 307 306 305 304 305 306 306 308 308 308 307 308 308 308 309 310 310 311 310 310 312 313 313 313 318 321 322 325 322 318 319 318 319 319 321 326 327 329 328 322 321 322 323 327 327 330 332 333 335 334 336 335 331 331 330 331 331 330 331 331 335 340 342 342 346 350 353 356 356 355 354 355 354 353 353 352 352 353 351 349 350 349 349 348 348 348
306 307 307 305 304 304 305 306 307 308 309 309 308 308 309 309 310 310 311 311 310 310 311 313 314 317 322 326 326 325 322 319 318 318 317 319 322 322 322 326 324 321 321 322 324 326 328 332 333 334 333 333 335 333 331 330 328 329 330 330 330 328 332 338 340 341 343 347 350 352 348 351 354 354 353 352 353 353 353 353 351 351 349 348 349 348 348 347
307 308 307 305 304 303 305 306 308 308 309 310 308 309 309 310 311 311 312 312 311 311 312 314 315 318 324 328 328 322 319 320 320 319 318 318 319 321 324 324 325 323 322 323 324 327 332 335 336 335 333 332 334 332 333 332 329 328 326 329 330 325 327 336 339 340 340 344 348 351 343 349 356 353 354 353 353 354 353 354 352 352 351 350 349 348 349 347
308 308 307 306 304 303 304 305 307 309 310 310 309 310 310 311 312 312 313 313 312 312 312 316 318 321 326 329 328 324 319 321 322 320 317 317 316 319 324 324 326 325 324 324 326 331 336 338 336 334 334 333 333 333 333 331 331 330 323 322 327 324 325 336 336 337 341 340 347 350 341 356 367 353 352 353 352 354 354 355 353 351 352 350 349 348 348 349
308 308 307 305 304 303 303 305 306 309 310 311 310 311 312 312 312 313 315 314 313 312 313 320 323 324 329 328 324 322 319 319 320 317 317 317 317 318 322 324 325 327 327 328 330 333 336 338 336 333 333 333 333 333 333 329 328 331 325 318 321 322 324 331 333 335 339 338 345 349 344 359 369 354 351 354 351 354 355 355 356 356 354 350 350 349 348 349
309 308 307 305 304 303 303 304 306 308 311 311 311 312 314 314 315 316 317 315 314 314 317 323 325 326 330 328 324 321 319 318 317 316 316 316 317 317 319 323 325 326 329 331 331 334 337 338 337 335 333 333 333 333 328 323 321 326 325 319 320 322 321 324 330 334 338 340 343 348 348 356 360 352 353 354 352 354 355 358 363 366 362 354 350 350 350 349
308 308 306 304 304 303 303 304 306 308 310 311 310 312 315 317 319 319 318 318 318 319 323 324 326 331 330 326 326 321 317 317 316 316 316 316 317 317 317 322 325 326 329 332 333 335 337 338 337 337 336 333 335 333 324 321 321 321 321 318 318 321 321 321 327 333 335 338 340 345 348 353 355 353 354 354 354 354 355 358 364 368 367 358 351 350 351 349
308 307 305 304 303 303 304 304 306 309 309 311 311 313 317 320 323 321 319 322 325 327 330 328 330 334 325 320 321 318 316 317 315 316 316 316 317 318 317 321 327 328 329 333 335 336 337 338 337 336 334 332 333 332 328 327 327 325 323 320 317 316 320 324 328 331 333 337 339 345 345 348 354 353 355 352 352 355 355 357 360 363 363 359 354 352 352 350
306 305 304 303 303 303 303 305 307 309 310 311 311 314 318 319 320 321 318 319 322 324 325 324 326 327 318 315 316 315 317 315 315 317 317 317 317 317 316 319 326 328 331 335 335 334 335 336 336 334 333 332 332 332 332 331 330 330 327 322 319 316 318 325 331 330 333 334 335 344 345 348 353 353 354 353 352 356 356 358 359 359 358 357 354 352 352 352
304 303 303 303 303 303 304 306 308 310 311 310 311 314 317 314 315 317 315 315 316 316 317 317 319 318 314 315 314 315 315 314 316 317 318 318 317 317 316 318 325 330 333 333 333 331 332 333 333 333 334 333 332 332 332 331 331 330 328 322 320 318 318 324 329 329 332 333 333 341 344 348 354 353 353 353 353 355 356 359 360 358 357 356 356 353 353 352
303 303 303 303 303 303 304 308 310 312 312 312 313 316 316 314 315 315 314 314 315 315 315 315 316 315 314 315 316 316 314 313 315 317 318 317 317 317 317 318 323 331 333 332 332 330 329 329 330 333 333 332 333 332 330 330 330 328 327 321 318 320 320 322 327 329 330 331 333 340 341 345 353 352 353 352 354 355 355 357 358 358 358 356 356 354 353 352
303 303 303 304 304 304 306 309 311 314 313 314 316 318 315 314 315 315 315 315 315 316 316 316 315 314 314 315 316 314 314 313 314 317 318 318 317 316 318 320 323 328 330 331 332 327 324 327 329 330 330 332 332 331 329 328 327 326 324 318 316 321 319 316 323 329 332 331 335 340 339 344 351 351 353 352 352 354 354 354 355 356 357 357 356 356 355 353
304 304 305 305 305 306 308 310 313 315 315 316 317 317 315 315 316 315 314 315 315 315 316 317 316 315 315 315 315 314 314 314 315 318 318 318 319 319 319 322 325 328 328 329 330 327 325 326 329 329 328 330 330 330 330 325 322 324 324 320 317 322 320 318 322 327 327 327 333 337 330 334 347 350 352 352 350 354 355 355 357 356 356 357 358 357 356 354
306 306 306 307 307 308 309 312 316 315 314 316 317 316 315 315 317 315 314 315 316 316 316 317 315 315 315 314 314 313 313 315 315 317 319 317 317 319 320 322 325 327 327 327 328 328 327 326 327 328 328 328 327 328 329 325 320 319 323 326 322 323 323 321 324 322 318 319 328 332 322 324 344 349 350 352 351 354 356 356 358 356 356 359 360 357 356 355
307 307 308 309 308 308 310 315 317 314 314 317 316 316 316 315 316 314 316 317 316 317 316 314 314 313 314 314 314 314 314 315 316 316 318 317 316 317 317 319 323 326 326 326 328 327 326 326 326 326 327 328 328 326 328 327 320 315 322 327 326 326 324 321 322 317 312 314 325 332 324 322 335 342 350 353 351 355 354 354 358 356 356 360 360 357 356 356
308 309 309 310 310 309 311 314 315 315 317 318 316 316 315 315 315 315 321 322 318 317 315 312 313 312 312 313 313 314 314 314 316 316 317 316 316 317 316 318 320 321 324 324 324 325 327 328 326 326 325 327 327 325 326 329 321 317 324 326 325 326 323 321 320 315 315 318 322 326 323 321 324 335 351 352 351 356 356 355 358 356 356 359 358 356 357 356
310 310 310 311 311 310 310 311 313 316 318 318 317 317 315 316 315 315 322 324 320 316 315 311 312 312 311 313 313 313 314 314 315 316 318 318 317 316 316 316 317 318 319 319 318 323 326 327 327 327 326 325 326 326 328 328 323 322 326 326 326 326 324 323 319 315 317 317 314 318 320 319 320 331 349 354 349 353 356 356 358 358 356 358 357 356 355 355
311 311 311 311 311 313 313 313 314 317 318 318 317 316 315 315 316 317 322 325 319 313 315 313 312 313 312 314 314 314 314 313 314 316 318 318 317 318 316 317 317 317 318 317 317 319 323 325 325 325 324 325 326 328 329 327 326 325 327 326 326 326 325 324 320 316 315 314 311 314 315 315 319 327 338 346 346 349 356 356 356 357 356 357 357 355 355 354
311 311 311 310 311 313 314 313 315 317 317 318 317 316 316 316 318 321 324 325 318 313 315 313 312 313 313 313 313 314 314 314 315 316 316 317 317 316 317 316 316 316 317 317 317 319 320 322 323 323 324 325 326 327 327 327 327 326 327 326 325 326 327 328 328 320 315 314 313 313 313 313 317 324 330 337 344 348 355 357 356 355 355 357 356 354 354 354
311 312 311 311 311 312 312 313 315 316 317 317 316 316 317 317 320 323 324 320 313 314 314 313 313 313 314 313 313 314 314 314 314 315 315 315 316 316 317 317 316 315 316 315 315 318 317 319 321 321 323 325 326 326 327 327 326 326 328 324 320 320 321 321 324 322 316 315 315 314 315 311 313 321 332 337 344 348 353 357 356 355 357 357 356 354 352 353
312 313 312 313 312 311 312 314 315 316 317 316 316 317 318 321 322 321 321 316 312 314 314 314 314 313 314 314 313 314 314 313 314 314 314 315 315 317 317 318 316 314 313 313 313 315 316 316 318 320 322 325 326 324 325 325 326 326 325 321 317 316 316 315 317 317 316 317 316 315 315 311 313 326 337 336 338 342 348 354 355 354 358 356 354 355 352 351
313 313 314 314 312 311 313 315 316 317 318 316 317 318 318 324 325 319 317 315 311 313 314 314 314 313 313 312 313 314 313 313 314 313 314 314 315 316 317 318 317 316 314 314 313 313 315 317 316 318 322 325 326 323 319 321 324 323 320 318 317 315 315 317 317 316 316 317 316 316 315 311 313 323 334 334 333 335 339 349 352 353 355 356 354 354 352 352
313 314 317 317 314 314 316 316 317 317 317 316 317 318 320 323 324 316 313 313 313 313 314 313 313 314 313 311 313 314 313 313 314 314 314 314 312 315 318 318 317 317 316 315 313 313 314 317 318 318 320 323 325 324 322 322 323 324 324 322 319 315 315 317 317 316 317 316 315 315 315 311 311 321 329 329 329 330 331 342 352 352 354 355 353 353 352 351
314 316 319 320 318 318 319 317 317 318 317 316 317 320 323 322 318 314 313 314 313 314 314 313 313 313 312 312 313 314 313 313 314 314 314 312 312 316 319 318 317 317 316 316 315 314 312 314 318 317 318 320 322 323 326 325 321 324 326 322 317 318 316 315 316 316 315 315 315 313 313 315 320 328 329 327 326 328 327 336 349 353 354 355 353 353 352 350
315 317 320 322 321 320 320 318 319 318 316 316 319 322 322 318 314 313 314 314 313 313 313 312 312 311 310 311 313 314 314 313 313 313 312 312 314 317 318 317 317 316 315 316 315 314 312 313 316 317 318 319 319 321 324 324 321 322 321 317 319 324 319 313 314 315 313 315 317 313 312 316 319 325 327 326 327 327 325 330 348 354 355 354 354 354 353 351
317 318 321 323 321 318 317 317 317 317 315 317 321 323 322 317 313 313 314 314 313 314 312 311 312 312 309 310 312 314 313 312 313 312 311 312 315 316 317 316 316 315 314 315 315 314 313 313 314 315 316 317 318 319 321 324 323 320 317 318 323 324 320 316 315 316 316 316 316 313 314 314 312 317 325 326 325 327 325 329 347 355 354 354 354 352 353 352
317 319 322 323 320 316 315 315 315 316 316 319 322 324 321 316 313 313 313 313 313 313 312 311 312 314 311 310 312 313 314 311 313 313 311 313 315 314 314 314 314 313 313 314 315 314 313 313 314 315 315 317 316 318 320 322 324 322 321 323 322 318 316 316 314 316 317 317 316 314 316 315 311 315 321 323 325 328 327 328 348 356 354 355 354 352 352 352
318 321 323 321 318 317 316 315 315 317 318 321 323 323 319 315 314 314 313 313 312 312 312 312 313 314 313 312 312 313 313 312 311 312 311 314 315 313 313 314 313 313 312 313 314 314 314 314 313 314 316 316 315 318 317 318 323 324 324 325 323 319 318 317 315 315 316 318 318 317 317 316 320 324 322 323 326 327 327 328 344 355 356 353 353 352 352 353
321 324 322 317 317 317 316 315 317 319 320 321 322 319 316 315 314 313 312 312 312 313 312 312 313 313 313 313 313 313 313 313 312 313 312 312 313 312 312 313 312 313 313 312 314 315 317 316 314 315 316 315 315 317 317 315 318 320 319 319 320 320 321 320 318 314 315 318 319 319 318 318 329 334 327 326 327 327 331 332 337 352 356 353 352 353 353 355
322 324 321 316 317 317 315 316 317 319 320 321 319 316 315 315 313 313 313 312 312 312 312 312 313 312 312 313 313 313 313 313 312 313 312 312 313 313 312 312 312 312 313 312 313 316 318 318 317 315 315 315 314 316 317 317 317 317 316 317 318 319 319 318 319 318 314 314 316 319 318 320 332 337 332 331 328 326 334 334 335 351 357 353 353 353 354 356
323 324 319 315 318 317 317 320 319 320 319 318 318 315 315 315 314 313 313 312 312 312 312 312 312 312 312 312 313 312 312 312 312 312 313 312 312 313 312 311 312 312 312 312 313 315 317 320 320 317 315 316 316 317 317 317 318 317 317 320 321 321 317 315 319 320 316 314 315 316 315 320 332 338 335 333 329 327 334 336 337 348 354 353 353 351 353 355
324 323 320 316 317 317 319 320 321 320 318 316 316 315 315 315 314 313 313 313 313 312 313 313 312 312 312 312 312 312 311 312 312 312 312 312 311 312 312 311 312 312 312 313 313 313 315 319 319 319 318 317 316 316 316 317 318 318 319 321 322 322 319 318 319 319 317 316 315 315 315 319 331 340 339 337 333 330 329 333 334 340 348 352 352 349 352 353
321 323 322 317 317 317 318 318 319 319 317 316 316 315 314 314 313 313 313 313 313 312 312 313 312 312 312 312 312 311 312 312 312 312 312 313 312 312 313 311 311 313 314 314 313 312 314 317 319 320 322 321 318 316 317 322 320 317 319 320 321 322 322 321 320 319 321 321 318 318 316 318 333 345 342 340 340 338 336 335 337 338 340 346 350 350 352 353
321 323 321 317 318 318 317 316 317 318 317 316 316 314 314 314 313 313 312 313 313 312 312 312 312 312 313 311 311 312 313 313 312 313 313 313 313 313 313 312 311 311 313 315 315 312 313 315 316 319 322 323 322 321 321 322 319 316 317 317 318 320 320 320 319 320 324 324 321 321 320 324 340 347 341 341 342 341 343 342 340 340 338 341 347 352 353 353
322 322 318 319 319 316 316 315 316 317 317 317 318 316 314 314 313 312 312 313 312 311 312 312 312 312 312 312 312 313 313 313 313 314 314 314 314 313 313 313 312 311 312 314 314 313 313 313 313 317 319 318 318 318 317 317 314 313 315 314 314 317 318 319 321 320 323 324 321 325 327 328 340 345 341 342 343 341 343 342 340 341 339 339 346 353 355 354
322 320 317 319 319 316 316 315 315 316 315 317 319 317 314 314 313 313 313 313 312 311 313 313 312 313 313 313 313 312 312 313 314 314 315 315 315 314 313 313 313 314 314 313 313 312 313 314 313 314 315 312 312 312 312 312 311 311 312 312 312 315 316 317 319 319 322 323 323 329 331 326 334 345 342 340 344 344 342 341 341 342 341 343 348 351 352 353
321 320 317 318 319 317 317 316 315 315 315 317 318 315 315 315 313 313 313 312 313 312 313 314 314 313 313 312 313 314 314 314 314 315 315 315 315 314 313 313 313 314 314 312 311 312 313 313 312 311 311 311 310 311 311 311 311 310 311 311 311 313 314 314 317 317 320 321 321 326 327 324 333 348 345 343 345 343 341 340 343 344 344 346 348 347 346 347
318 319 318 318 319 317 317 316 315 315 315 318 318 315 314 315 314 313 313 312 313 313 313 315 314 313 313 313 314 316 315 314 315 315 316 315 314 314 313 313 313 313 312 312 312 313 313 313 312 310 311 311 311 312 311 311 311 310 311 311 311 312 314 314 316 318 319 320 321 324 325 327 336 347 348 350 345 340 342 343 343 345 344 343 344 344 343 344
317 318 319 320 319 317 316 316 316 316 316 317 318 315 313 314 314 314 313 313 313 313 313 314 313 313 312 312 314 316 314 315 315 315 315 314 314 315 314 314 313 312 312 311 312 314 314 314 312 311 312 312 311 311 312 311 312 311 311 312 311 312 313 313 315 318 319 320 323 324 324 332 341 345 347 349 345 341 343 343 343 341 340 341 340 341 341 341
317 318 319 320 321 319 318 317 317 318 317 316 317 316 314 314 314 313 314 314 313 314 313 312 312 313 313 312 314 314 313 314 314 314 314 314 314 314 314 313 313 312 312 312 313 316 315 314 314 313 313 313 311 311 312 311 311 312 311 312 311 311 313 314 315 318 318 319 322 320 324 338 349 345 342 345 344 343 340 337 338 338 338 339 338 337 339 339
317 317 318 320 322 319 318 317 316 317 317 315 315 315 313 313 314 314 314 315 313 313 313 312 312 313 313 314 314 314 313 313 313 313 313 313 313 313 313 313 312 312 312 312 313 315 315 315 314 314 314 313 311 311 312 312 313 313 313 313 312 312 313 313 314 316 317 318 318 319 327 341 346 342 340 342 343 342 337 333 333 335 334 335 335 335 336 336
Wind_Speed
27 28 28 29 30 31 30 29 27 25 22 21 21 20 20 20 20 20 20 20 20 20 20 20 19 19 20 19 18 16 15 15 11 8 11 9 8 10 7 5 3 10 12 8 11 11 10 12 13 15 12 9 7 5 9 8 4 3 3 1 3 3 3 2 1 4 5 6 5 6 3 4 3 4 5 7 10 11 9 6 8 12 16 18 21 27 32 32
27 28 28 29 30 31 30 29 28 25 22 21 21 21 22 22 22 22 22 21 21 20 19 19 19 18 18 17 15 13 14 13 10 13 15 7 7 9 10 7 4 7 11 12 13 13 10 10 11 12 8 5 6 7 8 6 5 4 2 2 3 4 4 2 1 3 5 8 7 6 4 3 2 3 3 5 10 11 9 7 9 15 20 21 24 27 30 30
27 28 28 29 30 30 30 29 28 25 23 22 21 22 23 23 24 24 23 22 20 19 18 18 18 17 16 14 12 11 11 11 8 10 8 6 10 11 10 10 10 9 11 14 15 15 13 13 14 11 8 6 6 7 8 6 5 5 4 2 5 7 5 5 3 4 5 10 9 6 4 2 2 2 4 3 10 10 9 10 10 16 21 23 22 24 28 27
27 28 28 29 29 30 30 30 28 26 23 22 22 22 23 24 25 25 23 21 19 17 16 16 17 15 13 10 9 9 7 7 3 2 1 2 6 10 15 14 13 12 12 15 16 16 15 13 15 13 8 7 6 8 8 6 5 4 5 6 7 6 5 6 5 6 6 10 9 8 7 4 4 1 4 3 8 7 7 11 15 20 23 23 22 23 25 22
27 27 28 29 29 30 30 31 29 26 23 22 22 22 24 25 26 25 22 20 18 15 13 13 14 12 10 8 8 7 4 2 3 4 2 2 1 6 14 15 13 12 12 15 15 15 16 12 11 12 8 6 6 6 7 8 6 4 6 10 10 5 5 5 6 9 9 10 11 10 10 4 2 1 4 6 6 5 6 12 19 21 22 22 22 22 21 19
27 27 28 29 29 30 30 31 30 27 24 22 22 22 24 25 26 25 21 19 17 12 12 12 12 11 9 9 8 3 1 2 2 4 3 4 2 4 9 12 12 10 11 13 13 12 11 11 10 9 6 5 7 7 8 10 9 5 5 10 9 6 5 3 3 8 11 10 10 11 10 8 3 4 8 9 5 6 5 12 20 19 22 23 22 21 18 17
27 27 28 29 29 30 31 31 30 28 24 22 22 22 24 25 27 25 19 18 15 10 10 11 13 12 11 10 6 1 2 6 3 3 5 6 3 5 9 12 13 12 12 13 12 10 8 9 10 8 6 6 7 9 10 11 11 8 6 8 6 7 6 3 3 5 12 12 9 10 8 10 11 7 9 10 8 8 6 10 19 19 21 23 20 19 17 17
27 28 28 29 29 30 31 32 31 28 25 23 22 22 24 25 27 25 19 16 13 9 8 12 15 13 11 8 4 2 3 5 3 4 6 5 2 3 9 13 15 14 14 14 12 10 8 9 11 8 6 6 7 9 10 10 9 9 8 8 6 9 10 7 6 8 11 12 10 10 8 10 13 8 7 10 10 10 7 9 19 20 18 19 18 18 16 17
28 28 29 29 30 31 31 32 31 29 25 23 23 23 24 24 26 24 18 16 12 9 9 13 18 12 10 6 3 3 1 1 3 4 5 3 1 4 6 11 14 15 14 14 14 12 8 7 10 8 6 7 8 9 9 8 6 7 9 9 8 9 10 8 9 10 7 10 14 11 9 12 14 12 6 10 13 12 10 11 18 22 20 19 18 16 15 16
28 29 29 30 30 31 32 32 31 30 26 24 23 23 24 24 25 24 19 16 12 10 10 14 18 11 8 5 3 2 2 6 3 0 4 2 1 5 4 9 12 15 12 12 14 13 10 9 9 7 7 7 7 8 8 7 5 8 10 9 10 9 9 10 11 11 8 11 18 11 10 14 17 13 5 9 14 14 14 15 18 20 20 21 20 16 15 16
28 29 29 30 30 31 31 32 32 30 27 24 24 23 25 24 24 22 20 18 13 10 11 14 16 10 6 5 3 2 4 10 6 5 5 1 3 5 5 8 13 15 13 10 13 15 14 15 13 6 5 5 6 8 8 9 8 10 11 10 10 8 7 8 10 9 7 11 19 15 9 12 14 10 7 10 14 14 15 17 19 18 15 17 17 16 15 15
28 28 29 29 29 30 30 31 31 31 28 25 23 23 24 24 23 21 20 18 12 9 10 13 13 7 5 4 6 6 6 10 7 6 5 4 6 7 5 9 14 15 14 10 11 19 19 19 17 9 5 4 5 5 5 9 9 9 9 8 10 10 7 6 8 7 5 6 17 17 8 8 11 10 12 14 14 14 15 15 16 16 14 13 12 14 13 13
28 27 28 28 28 29 29 30 30 31 29 26 24 24 24 23 21 19 20 17 11 9 10 12 10 5 4 4 5 6 6 7 4 5 4 4 6 6 4 9 14 14 15 13 14 20 21 21 17 10 8 6 5 4 7 9 6 6 7 5 7 7 6 5 5 7 6 5 12 13 5 6 11 13 14 14 14 15 15 14 14 13 15 14 10 12 12 12
28 27 27 27 27 28 29 29 30 30 29 28 26 24 23 21 20 19 19 16 11 8 8 10 8 3 2 6 7 5 4 4 3 4 2 2 5 6 6 7 11 13 15 17 18 18 18 19 14 8 7 7 6 7 9 8 5 5 5 4 4 3 4 6 7 8 9 6 9 9 3 4 9 16 16 12 15 16 15 14 14 12 13 13 11 12 11 11
28 27 27 27 27 27 28 29 29 29 28 28 27 25 23 20 21 20 18 15 11 8 9 10 6 2 3 7 9 7 5 3 4 5 2 3 7 6 9 8 9 12 15 17 17 18 19 15 10 5 6 6 7 8 6 5 5 5 4 3 3 3 4 7 11 11 11 9 10 10 3 1 4 13 16 13 15 15 14 14 14 14 14 12 12 13 11 10
28 28 27 27 27 27 28 29 29 29 28 27 27 24 21 20 22 21 16 13 10 8 7 6 4 5 2 5 4 5 7 5 2 3 5 5 7 9 8 11 9 11 14 15 15 14 16 11 5 4 5 5 5 5 4 4 4 5 4 3 3 5 5 6 10 12 13 10 12 12 5 3 3 11 16 15 16 16 13 13 14 14 15 13 12 13 11 10
28 28 28 27 27 27 29 29 30 30 27 27 27 24 21 22 21 17 13 11 9 8 7 6 5 4 4 7 6 4 5 2 3 6 9 5 6 11 10 8 8 9 10 12 13 11 9 6 3 3 4 4 4 3 3 4 5 4 3 4 5 7 6 6 8 10 14 12 12 13 8 6 8 14 17 16 17 17 13 11 10 9 9 11 12 13 11 11
29 28 28 28 27 28 28 29 30 29 28 27 26 26 24 20 15 10 8 7 5 5 7 9 6 2 4 7 7 6 4 4 5 8 8 6 6 8 11 6 5 7 7 7 10 8 4 2 2 3 3 4 4 4 5 5 5 4 5 5 6 8 8 8 7 7 12 14 12 12 10 8 12 15 16 18 17 17 15 11 9 7 6 8 12 15 11 12
29 28 28 28 27 28 28 30 30 29 28 25 25 24 18 11 6 3 4 3 1 2 3 4 4 2 4 5 6 6 8 8 6 7 6 4 4 5 9 9 3 6 6 4 5 6 4 2 3 4 4 6 7 7 8 6 6 8 9 6 5 6 8 10 10 10 9 12 11 13 12 8 14 16 14 17 17 15 14 12 10 8 7 7 10 14 12 13
29 28 28 28 28 28 28 29 29 28 27 25 25 21 9 6 4 1 2 4 5 7 8 6 7 7 7 6 6 7 10 10 8 7 7 5 2 4 5 6 4 5 5 4 5 6 5 4 5 5 6 8 9 10 11 10 10 12 10 7 8 6 6 8 11 13 9 9 10 12 13 11 15 16 14 14 14 14 15 13 11 10 9 9 11 14 13 13
29 28 28 28 28 28 27 28 28 25 25 25 22 12 4 6 3 2 6 6 9 10 11 13 11 9 8 7 9 8 6 6 6 5 5 3 2 3 2 3 5 4 4 6 5 5 6 5 6 8 10 10 9 10 12 12 13 13 10 7 8 7 7 10 11 13 9 6 10 12 12 13 18 17 14 15 14 15 16 16 13 12 12 10 12 16 14 12
29 28 29 29 28 29 27 27 26 22 21 19 11 4 2 7 4 6 7 6 10 11 11 13 11 7 8 9 7 6 4 5 7 5 6 1 3 4 3 4 4 4 5 6 5 4 5 6 8 10 10 10 11 11 11 12 12 11 8 6 6 6 8 11 11 11 8 3 8 14 11 12 20 19 16 17 15 14 16 18 17 15 14 12 12 14 14 14
28 28 29 28 29 29 26 26 24 18 17 14 8 3 5 8 8 10 7 5 9 11 10 9 8 7 7 7 4 2 4 5 5 4 5 1 3 4 4 4 5 6 6 7 6 4 4 5 10 12 10 10 11 12 11 10 9 7 6 5 6 7 8 7 7 7 5 4 7 13 10 9 17 17 16 18 15 14 16 18 18 16 15 14 13 12 14 16
29 30 29 29 31 28 27 27 19 13 16 17 13 6 8 9 9 11 6 4 5 8 9 8 7 6 3 1 1 1 3 5 4 1 4 3 2 3 4 4 5 5 5 8 9 8 8 7 11 13 12 12 11 11 11 8 6 6 8 7 6 9 11 8 7 8 7 6 7 9 7 5 12 15 14 15 14 15 17 18 16 15 15 13 12 13 14 16
30 31 30 31 31 28 29 22 11 15 20 15 9 7 11 10 10 10 5 3 3 4 7 6 3 1 2 1 4 3 3 5 3 2 4 1 1 0 2 3 4 4 6 9 9 8 9 10 10 11 13 13 12 10 9 8 5 6 8 10 9 12 14 13 11 8 5 5 6 5 5 3 10 16 14 13 14 15 17 18 17 16 15 11 10 13 13 14
31 31 31 31 29 31 25 10 10 22 18 9 12 14 13 10 12 10 3 2 2 2 3 2 2 1 0 1 3 2 4 3 1 2 3 2 1 1 3 3 2 4 6 6 5 4 6 9 11 11 11 12 12 10 9 9 6 5 6 9 12 12 15 16 12 8 3 4 8 4 4 3 7 13 15 15 16 18 17 18 19 17 15 12 10 12 13 12
31 31 31 29 28 29 18 7 16 22 9 7 15 15 13 11 13 10 2 2 2 3 3 2 2 3 2 2 2 1 2 1 3 1 3 3 2 2 2 4 3 4 5 3 2 2 5 8 10 12 12 9 9 7 9 10 6 4 7 9 11 12 13 15 11 6 4 4 9 7 2 3 6 10 16 18 17 18 17 17 18 17 17 15 13 14 14 13
31 30 31 28 26 23 14 13 17 13 7 12 16 13 13 13 13 7 1 1 0 3 2 1 1 3 3 3 4 3 2 1 2 1 5 6 3 2 2 5 6 7 7 5 3 4 7 8 8 10 10 7 6 6 9 12 8 5 8 11 10 9 11 13 9 5 3 4 7 7 5 2 4 6 14 18 16 16 17 18 18 18 18 17 15 16 16 15
30 29 29 29 24 15 8 11 12 8 10 15 15 15 14 14 9 2 1 2 1 2 1 2 2 2 3 3 5 5 5 4 3 2 5 6 5 3 2 4 6 8 8 7 5 6 8 7 5 5 7 6 7 8 8 11 9 6 8 11 10 7 7 7 6 4 1 3 7 7 5 2 3 3 10 13 13 15 16 17 18 18 19 18 16 16 16 14
31 29 28 28 23 12 9 11 12 9 12 13 15 17 14 10 4 1 2 1 3 2 1 3 2 2 4 5 5 5 5 3 1 2 4 4 4 4 2 4 4 5 7 7 7 8 10 11 9 5 6 7 8 9 9 8 7 6 8 8 7 7 5 3 2 2 1 3 7 8 5 3 4 4 6 8 12 15 14 14 15 17 18 18 17 17 17 14
31 28 26 26 22 12 8 9 8 9 12 12 14 15 10 4 1 1 1 1 1 1 2 3 2 3 5 5 3 5 4 2 1 1 3 3 4 5 4 4 2 2 4 5 6 7 10 11 8 5 7 9 8 8 8 9 8 5 5 4 3 4 3 2 4 4 1 4 6 6 7 6 5 5 6 6 12 20 19 16 18 19 19 19 17 18 18 16
31 26 21 19 16 11 8 6 6 9 10 12 12 9 5 0 2 2 1 0 1 1 0 3 2 0 2 5 2 4 2 0 1 1 2 1 2 3 3 2 1 1 3 3 4 5 8 9 7 7 9 8 7 5 4 6 6 5 5 3 3 3 2 1 1 1 1 4 6 7 6 6 5 5 7 8 7 14 19 21 23 23 22 21 19 19 18 16
28 21 15 10 10 11 8 6 7 8 11 13 9 4 2 1 1 0 3 3 1 2 3 3 2 3 4 5 1 3 2 0 1 1 2 3 4 1 5 8 7 4 1 3 5 4 4 7 7 7 6 4 4 4 2 3 4 5 5 4 4 2 2 2 2 2 3 3 6 9 8 4 3 4 7 9 7 6 9 18 26 26 25 24 22 20 18 17
25 15 10 7 9 11 9 6 4 6 11 10 5 3 1 2 1 5 7 6 3 2 2 4 2 3 4 4 1 1 1 0 1 2 3 4 4 2 7 11 11 7 4 3 4 4 4 5 4 2 3 3 5 7 6 4 4 4 1 2 2 2 2 2 3 4 4 4 6 9 6 2 3 3 8 9 8 7 7 11 24 26 23 23 21 19 18 17
20 10 9 11 14 13 10 7 4 7 11 7 2 3 1 1 3 5 6 6 6 6 6 4 4 4 4 4 2 3 2 2 2 2 3 3 2 2 4 6 10 8 5 4 3 4 6 5 4 8 10 9 7 7 8 5 4 2 1 1 3 4 3 3 3 3 4 4 5 6 5 3 4 6 8 11 12 10 10 7 18 23 20 19 19 18 18 16
20 10 8 14 17 11 7 6 6 8 8 4 2 3 1 2 4 5 4 7 7 7 9 6 4 3 3 4 4 5 3 0 1 1 3 2 4 7 6 6 9 10 7 4 2 4 5 6 8 12 13 11 12 11 6 5 3 2 3 5 6 6 4 2 4 6 3 2 3 5 5 3 4 5 8 11 13 12 12 8 16 24 21 20 19 18 18 18
22 14 10 15 12 4 1 2 5 5 3 2 2 3 3 4 7 6 5 8 7 7 7 4 3 3 3 0 4 5 2 1 1 1 3 2 4 9 7 8 9 11 9 5 1 4 5 9 11 10 11 13 16 19 11 7 8 3 3 5 5 4 5 2 1 4 3 3 3 5 6 4 7 5 7 11 12 12 14 9 14 26 24 22 21 19 21 21
20 13 11 11 6 6 5 2 3 4 2 2 3 5 4 3 7 7 7 7 7 7 5 3 4 5 4 4 2 1 1 1 1 1 3 1 4 9 8 7 10 12 10 7 3 4 4 7 11 6 8 14 15 14 12 3 10 10 6 4 1 2 4 3 2 2 2 3 3 5 7 4 7 6 8 13 12 12 16 9 13 25 24 21 20 20 21 20
11 6 5 4 4 4 3 2 3 4 2 2 3 4 2 5 6 6 6 6 5 5 4 4 5 5 4 6 3 2 3 3 1 2 3 2 3 7 9 6 7 11 10 6 3 3 3 2 8 6 9 14 12 5 5 8 4 10 7 5 2 1 2 3 3 2 2 2 2 5 6 4 5 7 11 16 15 13 15 9 11 22 23 20 19 18 18 17
5 3 2 5 7 2 3 3 3 3 2 2 2 3 6 6 6 8 8 6 5 3 4 5 5 5 6 8 7 5 5 5 3 2 3 5 5 6 11 9 7 9 8 7 6 4 3 1 6 10 10 9 7 3 5 11 9 5 5 5 4 3 2 2 2 3 3 2 1 3 4 5 5 5 9 15 16 13 12 9 9 17 21 18 17 16 15 14
5 2 1 6 6 1 3 3 3 3 3 2 1 4 6 5 5 8 8 6 5 3 2 3 4 5 5 6 7 7 5 4 5 3 3 7 7 4 8 9 8 8 6 5 6 5 3 2 4 9 8 6 9 11 11 12 11 9 7 6 6 4 3 3 3 4 4 4 3 3 4 6 5 3 3 7 13 12 10 10 8 15 21 18 15 15 15 14
3 2 2 3 1 3 4 3 2 2 1 1 1 3 6 5 5 6 6 3 4 4 2 1 5 7 6 5 5 5 6 4 3 4 4 8 9 5 6 8 8 7 6 4 6 7 4 2 3 7 7 9 15 19 16 12 11 11 9 6 6 5 3 3 3 4 4 5 5 3 4 7 6 7 12 5 12 14 11 8 7 12 20 20 19 18 17 17
1 5 5 2 3 4 3 2 1 2 3 2 1 4 5 4 6 9 9 5 5 7 6 3 7 6 6 8 6 6 7 4 3 4 3 7 9 7 7 10 9 7 6 5 6 8 5 2 2 6 7 9 14 17 13 8 8 7 7 8 8 7 7 4 2 5 4 3 4 4 5 7 6 9 14 11 2 9 10 9 6 6 11 17 20 21 20 19
4 6 4 2 5 5 1 2 3 2 2 2 3 5 3 2 7 10 8 8 7 7 8 6 7 3 4 8 7 5 5 2 3 6 5 3 5 5 7 10 10 7 5 3 4 4 4 2 3 4 6 7 9 9 6 7 10 7 7 11 12 13 13 7 5 6 4 6 7 0 5 6 5 12 17 17 13 9 8 6 5 8 7 6 9 13 16 17
4 4 2 4 9 6 2 4 5 4 4 5 6 7 3 3 8 9 7 9 8 6 7 7 8 7 4 4 3 4 5 4 4 6 7 7 3 5 9 10 8 5 3 5 7 4 2 3 2 2 3 5 5 4 4 6 8 7 10 15 15 15 15 8 3 4 3 8 11 4 4 6 7 13 16 16 16 17 17 16 16 16 13 7 5 2 10 15
3 2 3 4 6 7 5 5 6 5 6 6 4 6 5 4 7 7 6 7 6 6 6 6 8 9 8 6 4 6 7 7 7 6 6 7 6 6 11 10 6 4 3 6 7 4 1 2 2 3 4 6 8 8 10 11 11 11 15 18 17 15 14 7 2 2 3 6 7 4 5 10 10 11 14 14 15 16 17 16 16 15 13 12 15 14 5 7
2 2 4 3 3 5 4 6 7 5 6 6 3 5 7 4 6 5 3 3 6 8 6 6 7 7 7 8 7 6 8 9 9 8 7 7 8 9 11 11 8 6 6 6 5 2 1 3 5 6 8 10 12 14 16 15 14 15 17 17 16 15 15 10 4 5 7 6 5 6 9 11 10 9 13 13 14 15 15 14 13 12 12 12 16 20 19 14
3 2 4 3 1 2 1 4 5 6 8 7 3 4 9 6 7 6 3 2 4 8 7 5 7 8 8 8 5 4 7 7 6 7 7 6 7 8 8 11 9 4 5 3 3 1 2 4 5 7 9 12 13 14 16 14 13 16 17 16 15 15 15 13 9 7 7 5 6 10 13 12 9 7 10 11 12 13 12 12 12 13 15 15 16 18 19 18
3 2 5 7 3 2 3 5 5 7 8 6 3 6 9 8 9 10 8 5 4 8 7 4 7 10 10 8 5 3 4 5 5 5 5 6 7 6 5 7 7 4 2 1 1 0 0 2 5 8 9 11 13 13 15 15 14 15 16 15 14 14 15 16 12 8 9 10 10 10 13 11 5 1 2 7 9 10 11 13 15 17 18 17 17 17 17 17
4 2 4 6 5 4 5 5 4 5 5 5 4 5 8 8 10 9 7 7 6 7 7 6 8 10 10 9 6 4 5 7 8 6 6 6 6 5 4 4 4 6 4 2 1 2 2 2 6 7 7 9 12 13 14 15 14 15 16 14 13 14 16 16 12 8 9 10 9 10 10 7 4 1 2 6 11 13 14 15 15 15 16 17 17 17 16 16
10 9 8 5 3 4 4 4 4 4 4 4 4 5 7 7 8 6 5 7 8 7 6 7 8 7 8 8 7 6 8 9 9 9 8 7 6 5 5 5 6 6 5 3 1 2 1 3 5 4 4 6 9 12 14 15 15 15 15 14 12 12 13 12 9 6 9 11 10 10 8 3 3 4 7 12 12 14 16 16 14 13 15 17 17 17 16 16
14 12 11 5 2 2 3 3 6 4 3 3 3 4 3 5 6 5 3 6 7 6 6 7 7 5 5 7 7 8 9 9 9 9 8 7 9 8 7 9 10 8 5 4 2 2 2 2 2 2 4 6 9 12 13 12 11 9 10 11 10 9 10 12 10 8 11 12 8 5 4 3 4 5 10 13 13 13 14 13 12 12 14 15 16 16 16 15
Wind_Direction
359 1 2 2 1 1 1 1 0 359 356 355 353 352 349 346 342 337 332 328 326 323 323 324 323 325 324 326 329 330 328 321 316 278 244 247 218 208 232 254 222 198 205 207 205 204 189 200 213 210 218 232 224 230 243 241 206 176 109 185 256 255 262 249 77 44 100 134 161 158 182 235 236 246 206 160 133 133 135 142 158 142 133 138 144 149 149 152
357 358 359 360 360 360 360 359 358 357 355 353 352 350 348 345 342 338 334 329 326 323 324 322 322 325 322 326 333 332 329 319 295 266 253 223 178 208 236 241 212 192 203 210 214 217 198 192 208 206 208 233 221 222 238 234 221 207 154 176 242 231 227 247 137 108 119 127 156 160 144 210 226 270 240 148 143 143 137 152 159 140 134 136 145 152 155 157
355 355 356 357 358 358 358 358 357 356 353 352 350 349 347 344 342 340 337 333 328 324 323 321 322 324 322 329 338 336 329 315 284 261 260 209 199 212 227 237 224 214 215 209 210 219 212 192 196 202 206 228 224 218 223 214 216 213 189 211 240 223 229 255 191 147 134 126 138 141 126 228 227 257 291 152 149 146 145 156 147 134 134 142 152 158 162 159
353 354 353 354 356 356 356 356 356 354 352 350 348 347 346 344 344 343 341 339 335 329 326 325 325 325 328 336 342 344 322 301 287 209 232 197 209 211 221 237 237 231 225 213 213 229 236 211 192 198 212 222 223 222 227 218 205 196 193 233 244 209 215 242 171 146 153 137 131 125 136 225 254 294 304 195 153 149 159 158 144 138 140 148 154 159 167 161
352 352 351 352 354 354 354 354 354 352 349 347 345 345 345 344 345 344 342 343 342 338 335 333 331 332 338 343 346 347 322 314 107 124 53 6 235 215 224 233 234 226 218 214 220 243 262 259 215 201 212 229 227 222 232 225 214 221 209 233 247 187 183 234 176 163 165 144 130 132 141 170 295 336 233 214 173 168 166 149 145 142 146 153 154 158 169 160
350 350 350 350 352 352 353 353 351 350 347 345 342 342 344 343 345 345 341 342 344 345 346 343 338 340 341 342 343 331 323 357 122 121 43 5 312 224 216 217 217 211 207 212 224 245 259 268 247 209 205 230 237 236 238 225 216 237 227 242 248 174 181 243 182 168 157 146 140 144 139 131 168 248 221 212 196 187 176 149 146 145 150 152 152 160 168 159
348 348 349 349 350 350 351 351 350 348 344 342 339 340 342 343 344 343 340 341 344 344 350 348 338 337 335 339 343 222 243 280 256 76 31 3 327 226 208 205 212 205 199 206 217 233 238 254 248 217 208 218 237 246 251 244 226 225 224 246 236 171 203 202 175 187 152 147 139 140 136 135 162 214 228 211 197 184 184 156 146 145 149 148 155 167 166 156
348 348 348 348 349 349 350 349 348 346 342 338 336 336 339 341 342 341 338 338 340 337 343 347 340 332 329 337 330 256 236 251 205 95 28 15 34 248 218 207 212 201 196 208 211 218 230 252 243 220 218 216 231 239 246 258 244 233 228 236 204 176 214 202 191 208 158 140 127 139 148 136 160 198 222 191 171 169 179 162 145 141 143 144 161 172 160 155
347 347 347 348 347 347 347 346 346 344 340 336 332 333 334 338 341 340 337 335 335 324 321 337 341 333 324 326 295 285 266 341 116 117 20 40 32 314 227 201 205 193 194 214 217 222 226 247 242 221 229 234 239 243 245 252 246 247 239 236 220 195 211 202 197 207 175 135 130 155 170 151 180 204 205 166 154 164 177 165 144 142 147 151 167 173 157 158
347 347 347 347 346 345 345 344 344 342 339 334 330 329 330 334 338 338 334 333 329 315 312 327 338 337 321 306 274 294 321 335 4 286 342 78 333 317 230 199 198 188 193 213 217 227 229 244 250 225 240 258 256 261 262 258 263 269 264 258 246 224 210 196 201 203 184 145 136 159 185 168 190 197 178 163 155 162 170 159 145 148 158 161 169 167 158 167
347 347 347 346 344 343 343 342 341 340 338 332 327 326 327 331 335 335 332 331 325 314 312 321 335 338 310 297 269 261 319 328 336 299 292 207 236 255 231 210 199 191 197 212 217 228 236 248 259 242 231 251 261 271 275 273 284 286 288 297 287 271 239 202 215 215 187 160 145 155 181 176 193 191 169 161 151 156 160 152 151 158 161 163 167 160 162 174
347 348 346 344 343 342 341 339 339 338 336 330 325 322 325 329 331 332 329 328 322 310 311 321 335 339 309 286 241 234 291 319 326 302 264 244 242 220 234 220 200 196 201 212 219 226 238 250 260 259 241 236 247 264 284 275 276 283 287 294 293 291 274 221 225 229 206 175 153 152 160 176 194 184 160 154 149 155 156 151 158 160 150 163 171 158 170 174
347 348 346 343 342 341 339 338 337 335 333 329 322 319 323 326 327 327 324 323 318 306 314 324 331 334 312 267 241 248 284 298 313 312 247 236 249 205 225 226 202 197 207 221 224 225 233 243 254 263 264 265 258 277 301 290 271 266 266 260 273 282 282 265 243 224 219 206 162 155 157 193 191 168 150 149 153 155 154 155 163 158 148 167 178 161 175 174
346 348 346 343 340 339 338 336 337 333 330 327 320 318 320 321 324 321 316 316 312 304 312 326 329 329 288 262 274 274 281 280 245 276 223 227 275 206 197 235 213 196 210 233 242 250 254 246 250 266 270 270 286 302 303 303 293 267 255 246 260 253 264 262 250 223 211 209 166 153 176 205 167 155 152 152 157 156 156 158 161 161 156 168 173 165 176 176
345 347 345 343 340 338 336 335 336 332 328 324 318 317 316 316 320 314 308 306 304 303 314 321 304 240 274 274 272 250 247 276 225 238 229 260 289 233 187 210 230 207 208 232 247 268 276 259 239 250 274 273 285 292 292 302 297 279 255 243 237 223 243 244 243 224 205 204 169 154 167 173 134 153 157 156 160 158 157 157 159 164 168 170 163 167 176 176
345 346 344 342 339 337 335 334 335 333 327 320 316 316 313 314 315 308 300 294 291 294 307 313 238 205 273 289 273 230 240 265 235 265 265 248 279 278 217 187 215 229 217 229 240 258 277 278 246 225 252 263 262 262 288 298 274 270 245 239 237 221 226 233 247 228 204 200 179 172 162 123 160 168 158 158 160 157 157 153 157 165 170 170 153 165 179 175
344 344 342 341 338 336 334 333 334 334 327 317 317 317 314 314 310 302 292 282 285 286 272 270 251 211 243 283 311 284 244 254 25 322 305 283 268 284 271 192 186 224 226 233 240 244 265 283 274 230 223 242 253 224 247 255 244 266 237 237 257 244 236 220 241 229 201 196 186 181 173 148 168 172 159 161 159 154 157 146 150 159 160 169 154 164 184 175
344 342 341 339 337 335 334 332 333 335 326 315 315 316 315 316 310 297 290 283 292 285 253 259 275 278 250 266 277 273 292 13 8 321 305 286 259 267 282 265 177 195 219 233 234 229 226 238 246 245 213 215 241 219 214 225 223 246 230 218 232 239 253 243 244 238 196 191 187 174 176 158 153 167 162 164 165 156 159 147 147 156 154 179 162 165 184 173
343 341 340 337 336 335 333 331 331 334 328 315 317 325 325 329 332 297 269 252 224 272 271 244 206 232 287 261 242 268 317 323 305 283 247 230 244 245 274 282 232 192 211 203 200 203 198 218 224 231 224 208 219 223 234 248 239 245 247 241 233 227 240 239 245 254 207 183 183 169 176 162 144 162 164 164 167 155 153 147 149 163 168 195 173 167 181 172
342 340 339 336 336 334 332 331 330 334 331 319 324 335 347 354 355 35 299 251 240 261 276 265 223 239 280 297 304 322 323 294 259 230 199 179 190 214 253 272 243 210 212 203 189 190 201 226 219 219 231 222 217 222 237 258 262 264 270 273 276 271 252 238 236 247 229 182 182 171 173 162 141 156 164 163 161 147 148 149 155 169 177 197 183 171 178 173
341 341 339 336 335 333 331 330 329 332 328 319 320 325 11 13 339 336 336 281 265 272 272 275 265 264 282 296 311 320 316 276 242 180 147 175 178 145 182 228 236 218 204 229 222 188 200 226 228 220 228 235 234 227 224 239 255 266 275 279 282 283 277 266 247 240 236 194 181 178 173 157 146 156 166 163 158 154 155 152 159 174 181 196 187 175 176 172
342 342 339 336 335 333 331 330 328 326 317 312 309 274 1 15 338 317 329 292 288 288 275 274 267 268 273 260 272 286 272 264 242 168 116 169 175 142 178 190 223 225 190 221 243 213 203 221 237 234 230 233 240 245 235 230 238 251 265 274 278 279 283 278 260 240 229 192 175 181 181 157 154 161 165 163 164 165 163 157 162 177 185 192 186 178 172 169
343 342 339 337 335 332 330 328 324 316 306 299 281 275 356 2 345 334 322 282 291 283 262 256 244 248 250 224 212 232 246 271 264 147 119 240 182 173 216 198 220 235 201 205 218 232 229 209 222 236 245 240 235 242 247 244 236 236 247 259 268 269 275 280 275 267 249 231 196 182 180 162 158 161 164 169 167 160 161 161 166 176 185 188 184 180 171 169
343 342 340 338 335 332 330 326 320 320 318 300 277 301 8 1 358 354 331 268 279 278 260 242 227 240 256 204 197 203 259 271 287 116 155 229 230 185 224 228 229 235 226 221 215 226 247 233 215 218 228 240 245 239 237 247 246 232 232 239 261 266 269 277 286 296 294 268 230 176 167 173 162 158 163 172 165 154 158 162 167 178 185 186 181 179 175 172
343 341 339 338 337 332 330 324 327 340 330 314 302 351 10 0 359 354 330 266 256 258 254 243 221 267 2 11 215 216 279 262 243 156 150 179 328 332 280 271 243 240 243 238 229 226 240 250 242 226 216 221 238 246 235 234 244 246 229 220 239 262 271 280 289 305 315 287 265 178 164 206 172 164 163 168 167 161 163 166 168 177 184 184 177 176 177 175
342 341 338 339 336 334 336 328 337 338 328 340 6 360 356 357 351 341 313 261 270 181 192 202 168 237 293 151 193 226 281 281 40 109 122 68 8 330 311 300 251 252 256 252 253 243 227 235 245 248 236 216 218 238 244 237 234 250 241 217 220 241 264 274 285 300 295 274 282 245 177 185 178 172 167 167 170 167 167 171 172 175 180 179 175 175 179 179
340 339 337 336 334 337 338 304 328 335 322 3 3 347 344 344 333 327 287 244 260 162 155 168 179 199 163 149 195 286 293 319 346 295 129 93 77 72 304 287 283 264 269 280 266 262 243 229 231 245 252 236 216 217 231 240 241 234 251 250 227 218 243 262 272 276 267 290 295 291 260 176 187 187 174 169 169 168 169 172 172 177 179 176 175 177 181 183
337 336 336 333 331 334 320 292 317 325 308 341 348 342 337 323 312 312 274 298 240 159 163 109 126 180 180 198 216 252 292 243 277 244 138 148 154 125 220 263 282 278 279 287 267 270 266 238 220 235 249 251 237 216 208 224 242 239 246 262 254 224 228 244 253 253 273 307 295 304 326 264 215 184 169 168 170 170 174 176 174 178 179 175 174 178 181 184
333 333 335 331 329 340 334 302 301 305 315 326 334 334 323 310 307 300 240 317 135 164 213 119 114 170 200 224 211 232 262 231 218 198 167 178 177 165 232 256 279 292 293 289 277 277 280 280 284 273 260 253 253 250 223 215 227 235 245 263 275 276 259 246 242 240 245 263 265 286 318 299 271 194 158 167 178 175 177 182 180 179 179 176 174 175 179 184
330 331 335 331 326 342 348 302 280 306 326 319 324 325 312 306 309 203 256 251 148 157 179 135 123 172 212 238 209 203 243 254 201 191 203 207 176 169 246 264 265 294 299 296 289 281 285 296 305 297 274 263 252 257 256 242 237 227 231 253 275 290 305 320 325 16 59 251 260 275 286 292 286 239 171 170 183 179 176 181 183 182 179 178 176 175 179 183
330 331 334 327 319 318 313 284 281 329 335 323 325 317 301 300 253 254 330 75 110 220 179 124 105 178 216 253 217 177 220 259 120 168 231 224 176 181 225 236 214 289 286 283 281 275 277 282 286 281 281 279 259 249 253 252 255 251 230 225 255 279 303 351 4 16 27 268 277 280 273 267 267 241 215 201 183 177 173 173 179 181 180 181 180 178 181 182
331 332 329 320 308 285 261 267 316 352 341 324 323 309 289 236 208 244 281 3 39 310 310 90 75 336 284 290 234 151 156 286 84 344 297 275 238 221 216 177 115 285 264 277 292 271 257 254 257 267 275 278 269 261 258 245 244 251 240 198 181 242 268 276 355 339 226 256 282 293 290 261 249 249 246 250 215 183 176 173 176 179 179 182 183 180 181 180
334 334 326 313 286 269 266 292 327 345 331 319 310 284 274 300 252 26 331 341 98 263 315 57 55 0 336 320 1 91 63 151 206 346 2 331 297 323 51 43 25 355 312 336 329 312 274 254 237 240 253 249 244 249 270 269 239 235 222 172 164 197 221 210 179 215 250 267 268 278 291 269 241 274 267 263 262 238 198 176 176 179 179 182 183 179 176 175
337 332 322 307 272 269 272 286 309 296 299 308 297 269 284 264 308 46 20 11 29 305 18 72 9 323 295 293 41 64 335 95 91 12 3 326 302 13 52 39 28 16 357 1 345 330 330 293 248 270 324 302 254 232 225 257 258 249 246 129 186 214 206 220 176 170 209 239 234 243 256 212 174 251 272 273 268 266 264 190 175 180 182 179 178 175 174 175
342 332 318 302 276 271 265 258 266 262 278 303 288 269 292 267 323 29 26 6 360 355 20 21 301 276 263 254 165 100 43 52 62 22 306 286 322 48 76 45 34 33 15 13 355 330 330 301 308 343 329 317 307 260 230 255 282 242 176 178 241 242 241 249 242 213 201 219 225 217 219 186 184 217 235 259 268 255 260 221 173 177 180 173 172 174 175 175
349 345 313 286 274 276 265 249 252 251 268 308 288 268 323 35 19 28 9 355 357 349 345 328 285 251 250 225 146 97 73 11 84 84 257 254 25 33 68 59 34 45 45 25 322 348 346 287 308 339 323 316 335 320 265 214 255 279 197 208 217 231 252 250 265 284 277 253 246 219 222 199 200 237 227 238 260 252 253 241 170 172 175 170 173 177 175 175
347 346 314 286 286 335 62 228 240 233 249 288 285 300 316 14 31 36 12 352 346 334 326 324 339 326 306 128 111 104 102 290 78 76 262 203 42 18 53 69 43 48 49 37 11 22 7 292 301 340 324 316 337 334 316 207 200 246 257 216 193 217 264 265 253 289 278 259 253 232 244 203 184 232 230 223 243 244 249 248 167 169 174 173 177 178 175 177
336 329 307 293 319 39 61 100 205 212 232 270 272 284 291 34 38 29 15 351 335 328 320 345 357 332 340 18 41 140 67 5 111 345 312 123 59 16 28 54 45 42 34 33 35 11 12 308 302 337 340 327 335 336 332 286 202 218 254 273 193 202 251 243 231 274 263 267 272 262 269 227 184 199 204 212 225 227 239 242 160 166 174 174 179 179 176 176
323 309 310 318 353 28 70 142 218 235 244 273 279 288 351 66 52 35 25 358 344 337 336 12 2 335 4 22 358 319 7 23 27 344 353 64 74 22 19 24 40 36 16 18 38 345 21 328 290 323 1 342 328 315 357 360 265 229 256 287 270 237 240 225 214 224 246 253 266 279 285 255 211 198 192 202 209 211 225 231 166 167 173 175 178 178 175 172
303 280 312 344 341 355 142 191 251 271 257 271 314 0 26 39 37 49 47 8 356 19 354 358 360 348 6 22 18 9 11 24 26 341 358 54 74 37 28 24 21 24 5 4 33 13 15 95 277 310 348 345 309 286 10 359 335 290 293 298 278 275 283 278 259 223 233 238 239 280 284 276 259 210 194 201 202 200 205 209 183 169 171 176 174 170 170 168
285 287 9 4 5 133 181 226 248 246 239 264 9 23 21 21 22 53 56 4 353 78 36 341 10 360 350 16 22 9 357 7 20 3 6 50 66 54 39 25 359 5 7 7 38 35 0 8 294 303 327 326 295 305 329 332 323 315 311 307 297 280 244 262 272 240 228 213 223 269 270 268 279 327 304 221 193 188 187 190 186 165 166 171 166 163 166 166
257 333 353 19 64 207 256 271 246 259 291 6 23 17 16 359 340 28 59 9 349 27 348 331 42 12 354 25 31 10 1 351 357 7 43 65 64 59 57 37 2 3 10 11 41 32 346 301 303 298 302 302 294 298 309 308 301 296 296 314 320 306 273 255 269 283 264 207 204 244 279 271 281 333 331 290 178 176 179 171 158 154 162 167 167 169 170 170
306 321 288 254 223 237 271 307 339 18 30 22 14 26 23 349 351 23 28 4 15 6 338 46 60 33 24 29 19 13 14 353 337 0 41 78 67 54 50 35 13 16 21 3 16 13 345 302 334 312 300 301 294 292 299 318 331 314 311 333 335 326 320 305 334 343 313 241 198 200 234 271 307 357 346 336 176 170 173 170 159 141 154 166 172 174 172 172
335 299 255 289 303 278 231 341 349 41 39 23 43 44 52 25 29 37 10 358 34 6 338 33 38 355 46 32 3 7 15 339 359 8 7 54 88 93 72 49 31 38 60 35 7 9 352 356 15 341 317 315 310 304 314 357 9 349 319 331 334 339 351 4 17 6 349 347 352 286 214 263 349 27 14 2 10 44 76 88 66 48 65 142 180 188 179 172
316 275 238 357 332 329 35 5 3 35 4 9 40 31 40 57 40 40 1 359 36 5 338 25 4 334 35 46 328 356 359 320 347 12 7 356 13 74 57 50 43 40 53 29 17 19 5 348 357 345 311 301 304 322 338 347 348 325 313 325 329 341 358 12 3 350 347 345 345 324 250 302 358 30 24 9 12 35 46 43 46 41 30 36 24 278 193 179
309 317 341 354 350 3 28 8 21 48 6 5 40 7 4 75 71 50 9 1 27 2 350 26 7 357 23 21 357 6 353 339 350 6 10 349 341 23 20 6 11 21 4 7 12 14 354 311 270 241 256 271 279 294 304 309 311 305 311 320 321 329 339 338 331 334 315 322 318 286 322 338 349 22 29 14 11 31 38 33 42 40 19 21 29 25 62 153
303 4 2 356 358 9 22 10 17 43 13 5 40 338 336 38 76 55 38 34 21 8 11 27 13 11 21 14 15 9 349 348 355 359 8 358 347 6 3 339 341 40 42 3 352 349 273 263 263 256 256 266 276 285 292 296 298 298 301 308 314 321 323 318 319 332 326 320 300 308 342 339 326 357 22 19 17 29 32 24 30 34 24 29 38 37 41 44
337 1 6 3 308 301 37 36 24 44 30 13 25 346 342 22 58 38 18 17 24 31 35 19 8 17 19 12 11 1 349 346 347 356 9 1 344 356 353 322 318 41 74 352 313 304 268 263 279 283 278 283 287 288 291 293 292 291 289 293 305 314 315 310 307 320 326 307 292 313 323 312 303 340 1 4 18 29 25 20 25 32 33 34 39 41 39 36
357 347 353 353 331 303 23 46 50 60 43 13 12 12 359 16 37 25 6 344 8 45 42 355 359 10 3 1 7 358 346 336 332 352 0 344 335 340 329 309 316 358 56 236 242 340 293 271 289 295 296 297 298 299 301 299 293 288 285 286 297 302 298 294 293 303 301 281 278 296 300 300 315 72 313 335 6 24 26 26 27 31 35 33 33 36 35 32
353 354 349 333 340 354 352 7 37 73 56 18 14 22 6 14 27 17 1 354 359 26 28 360 1 1 345 343 349 330 337 349 342 340 343 335 327 318 304 297 312 322 316 293 2 49 47 309 301 302 299 295 298 302 301 296 291 288 286 284 286 286 283 281 286 297 291 283 300 316 307 314 353 61 100 33 19 21 32 33 26 25 30 32 31 29 28 28
345 352 1 321 314 353 328 337 29 66 61 30 27 30 9 12 30 12 347 10 10 6 17 9 358 352 337 330 331 333 347 351 336 326 326 314 293 284 294 303 302 306 311 305 328 73 74 296 299 305 295 288 294 296 293 294 295 292 290 284 274 267 270 276 284 295 292 294 315 329 324 326 325 339 50 57 39 28 32 32 24 20 24 29 29 23 21 23
355 353 2 339 282 335 340 26 40 46 69 51 47 65 26 355 26 34 9 16 5 349 11 8 342 336 329 319 332 349 347 335 315 308 303 292 289 287 287 290 288 288 290 282 258 169 181 251 285 310 297 288 289 293 298 303 301 293 290 289 282 272 274 281 282 275 276 282 294 318 329 339 336 6 48 57 51 42 35 28 24 19 19 25 27 20 16 16